Location: Easthampton
(42.2676°N, 72.6690°W)
Time: 19:10:52
(UTC+00:00)

AO-91 - Pass Details

Date: 01 April 2023
Orbit: 446 x 775 km, 97.6° (Epoch: 30 May)

Event Time Altitude Azimuth Distance (km) Brightness Sun altitude
Rises 03:39:31 0° 6° (N) 3,212 ? -40.3°
Reaches altitude 10° 03:41:52 10° 1° (N) 2,309 ? -40.5°
Enters shadow 03:43:01 17° 356° (N) 1,892 ? -40.6°
